This demonstration page uses our WeatherBlox Daily Observations layout. Learn more.

Left ArrowRight Arrow

39.95238, -75.16362

Hourly Observations for April 14, 2022

Temp ( °F °C ) Dew Point ( °F °C ) Humidity (%) Winds ( mph kmh ) Pressure ( in mb ) Visibility ( mi km ) Precip ( " mm )
12:54 am 00:54 Mostly Cloudy 68 20 57 13.9 68 68 S 9 15 29.77 1008 10 16 0.00 0.00
1:54 am 01:54 Mostly Cloudy 68 20 57 13.9 68 68 S 8 13 29.78 1008 10 16 0.00 0.00
2:54 am 02:54 Mostly Cloudy 69 20.6 56 13.3 63 63 SSW 10 17 29.77 1008 10 16 0.00 0.00
3:54 am 03:54 Cloudy 70 21.1 56 13.3 61 61 SW 9 15 29.76 1008 10 16 0.00 0.00
4:54 am 04:54 Mostly Cloudy 70 21.1 56 13.3 61 61 SW 9 15 29.76 1008 10 16 0.00 0.00
5:54 am 05:54 Partly Cloudy 70 21.1 56 13.3 61 61 SW 8 13 29.76 1008 10 16 0.00 0.00
6:54 am 06:54 Mostly Sunny 70 21.1 56 13.3 61 61 SW 8 13 29.78 1008 10 16 0.00 0.00
7:54 am 07:54 Mostly Sunny 71 21.7 57 13.9 61 61 SW 9 15 29.77 1008 10 16 0.00 0.00
8:54 am 08:54 Partly Cloudy 73 22.8 57 13.9 57 57 SW 14 22 29.78 1008 10 16 0.00 0.00
9:54 am 09:54 Partly Cloudy 75 23.9 60 15.6 60 60 WSW 14 22 29.77 1008 10 16 0.00 0.00
10:54 am 10:54 Mostly Cloudy 77 25 61 16.1 58 58 SW 15 24 29.77 1008 10 16 0.00 0.00
11:54 am 11:54 Mostly Cloudy 80 26.7 60 15.6 51 51 SW 15 24 29.78 1008 10 16 0.00 0.00
12:54 pm 12:54 Mostly Cloudy 81 27.2 60 15.6 49 49 SW 15 24 29.76 1008 10 16 0.00 0.00
1:54 pm 13:54 Mostly Cloudy 82 27.8 57 13.9 42 42 WSW 14 22 29.75 1007 10 16 0.00 0.00
2:54 pm 14:54 Mostly Cloudy 82 27.8 58 14.4 44 44 WSW 13 20 29.74 1007 10 16 0.00 0.00
3:54 pm 15:54 Mostly Cloudy 83 28.3 59 15 44 44 SW 15 24 29.72 1007 10 16 0.00 0.00
4:54 pm 16:54 Mostly Cloudy 83 28.3 58 14.4 43 43 WSW 14 22 29.72 1007 10 16 0.00 0.00
5:09 pm 17:09 Mostly Cloudy with Thunderstorms 83 28.3 58 14.4 43 43 WSW 15 24 29.73 1007 10 16 0.00 0.00
5:22 pm 17:22 Windy with Storms Likely 66 18.9 57 13.9 73 73 NW 35 56 29.78 1008 2 3 0.00 0.00
5:30 pm 17:30 Cloudy with Thunderstorms 65 18.3 57 13.9 76 76 NW 26 43 29.79 1009 3 5 0.00 0.00
5:49 pm 17:49 Cloudy with Light Rain 64 18 57 14 78 78 NNW 16 26 29.80 1009 7 11 0.00 0.00
5:54 pm 17:54 Cloudy with Light Rain 66 18.9 57 13.9 73 73 NNW 15 24 29.80 1009 10 16 0.00 0.00
6:54 pm 18:54 Mostly Cloudy 66 18.9 59 15 78 78 NW 8 13 29.82 1010 10 16 0.00 0.00
7:54 pm 19:54 Cloudy 65 18.3 53 11.7 66 66 NW 10 17 29.88 1012 10 16 0.00 0.00
8:54 pm 20:54 Cloudy 62 16.7 44 6.7 52 52 NNW 10 17 29.92 1013 10 16 0.00 0.00
9:54 pm 21:54 Cloudy 61 16.1 40 4.4 46 46 NNW 10 17 29.95 1014 10 16 0.00 0.00
10:54 pm 22:54 Mostly Cloudy 61 16.1 39 3.9 44 44 NW 10 17 29.98 1015 10 16 0.00 0.00
11:54 pm 23:54 Cloudy 60 15.6 40 4.4 47 47 NNW 9 15 30.00 1016 10 16 0.00 0.00

Powered by AerisWeather